1501912800.69,63499,22.88,74438.0,14.45,-9.49,-9.75,0,*47
1501912801.92,63500,22.88,74440.5,14.45,-10.57,-10.97,0,*45
1501912803.15,63501,22.88,74446.8,14.45,-9.97,-10.27,0,*7B
1501912804.34,63502,22.88,74440.5,14.47,-9.71,-10.05,0,*72
1501912805.57,63503,22.88,74442.8,14.47,-10.01,-10.41,0,*4C
1501912806.8,63504,22.88,74446.8,14.49,-10.15,-10.49,0,*48
1501912808.04,63505,22.88,74438.8,14.49,-10.15,-10.49,0,*49
1501912809.3,63506,22.88,74442.3,14.49,-9.49,-9.53,0,*48
1501912810.54,63507,22.88,74436.8,14.53,-10.35,-10.63,0,*4A
1501912811.8,63508,22.88,74444.8,14.53,-10.79,-11.07,0,*4E
1501912813.07,63509,22.88,74444.0,14.49,-10.67,-10.97,0,*43
1501912814.27,63510,22.88,74440.8,14.53,-9.89,-10.19,0,*7E
1501912815.5,63511,22.88,74444.3,14.53,-10.49,-10.75,0,*41
1501912816.78,63512,22.88,74440.3,14.55,-10.75,-11.07,0,*4F
1501912818.01,63513,22.88,74446.3,14.55,-10.09,-10.35,0,*45
1501912819.23,63514,22.88,74444.3,14.55,-9.89,-10.05,0,*71
1501912820.48,63515,22.88,74450.5,14.55,-10.71,-11.01,0,*4A
1501912821.75,63516,22.88,74446.0,14.53,-11.29,-11.59,0,*4E
1501912822.96,63517,22.88,74438.5,14.53,-10.23,-10.45,0,*48
1501912824.19,63518,22.88,74444.0,14.53,-10.49,-10.75,0,*48
1501912825.41,63519,22.88,74450.8,14.55,-9.75,-9.79,0,*4C
1501912826.63,63520,22.88,74448.0,14.55,-9.97,-10.31,0,*7E
1501912827.85,63521,22.88,74452.0,14.55,-9.67,-9.89,0,*4B
1501912829.09,63522,22.88,74448.8,14.57,-10.67,-10.89,0,*4A
1501912830.29,63523,22.88,74444.3,14.57,-10.01,-10.31,0,*48
1501912831.52,63524,22.88,74450.8,14.57,-10.53,-10.75,0,*48
1501912832.75,63525,22.88,74456.3,14.57,-10.31,-10.71,0,*49
1501912833.98,63526,22.88,74444.3,14.59,-11.19,-11.45,0,*49
1501912835.19,63527,22.88,74446.0,14.57,-12.93,-13.19,0,*4C
1501912836.45,63528,22.88,74446.5,14.55,-10.93,-11.29,0,*42
1501912837.73,63529,22.88,74454.8,14.55,-11.07,-11.29,0,*4F
1501912838.98,63530,22.88,74452.5,14.55,-10.89,-11.07,0,*4C
1501912840.23,63531,22.88,74458.5,14.55,-11.19,-11.55,0,*42
1501912841.5,63532,22.88,74454.8,14.57,-11.29,-11.55,0,*40
1501912842.76,63533,22.88,74454.0,14.57,-11.93,-12.35,0,*45
1501912844.04,63534,22.88,74450.8,14.55,-11.97,-12.11,0,*42
1501912845.29,63535,22.88,74450.8,14.55,-11.01,-11.33,0,*4F
1501912846.57,63536,22.88,74448.5,14.55,-11.89,-12.15,0,*4B
1501912847.77,63537,22.88,74450.5,14.53,-11.19,-11.45,0,*43
1501912849.05,63538,22.88,74458.8,14.55,-10.79,-11.07,0,*4B
1501912850.29,63539,22.88,74434.8,14.53,-11.97,-12.29,0,*42
1501912851.53,63540,22.88,74444.0,14.53,-12.25,-12.53,0,*4B
1501912852.73,63541,22.88,74456.0,14.53,-11.19,-11.45,0,*42
1501912854.01,63542,22.88,74448.0,14.49,-10.75,-11.07,0,*47
1501912855.27,63543,22.88,74444.0,14.49,-11.23,-11.59,0,*4F
1501912856.52,63544,22.88,74440.3,14.49,-11.23,-11.51,0,*40
1501912857.8,63545,22.88,74436.3,14.49,-11.59,-11.89,0,*49
1501912859.05,63546,22.88,74446.8,14.47,-11.59,-11.89,0,*44
1501912860.28,63547,22.88,74444.0,14.49,-11.19,-11.45,0,*4F
1501912861.53,63548,22.88,74444.8,14.49,-11.11,-11.59,0,*45
1501912862.76,63549,22.88,74444.8,14.49,-10.15,-10.35,0,*4A
1501912864.04,63550,22.88,74438.3,14.49,-10.79,-11.07,0,*48
1501912865.24,63551,22.88,74442.8,14.47,-11.15,-11.41,0,*4E
1501912866.52,63552,22.88,74436.3,14.49,-10.79,-11.07,0,*4A
1501912867.77,63553,22.88,74436.0,14.49,-10.97,-11.33,0,*4C
1501912869.02,63554,22.88,74442.8,14.49,-11.11,-11.37,0,*40
1501912870.22,63555,22.88,74440.8,14.53,-9.97,-10.23,0,*79
1501912871.48,63556,22.88,74442.3,14.53,-11.07,-11.33,0,*4A
1501912872.7,63557,22.88,74442.5,14.55,-10.05,-10.35,0,*49
1501912873.99,63558,22.88,74442.0,14.55,-11.29,-11.59,0,*42
1501912875.25,63559,22.88,74440.0,14.53,-10.79,-11.07,0,*4A
1501912876.52,63560,22.88,74442.8,14.55,-11.55,-11.77,0,*4E
1501912877.78,63561,22.88,74438.5,14.55,-10.49,-10.75,0,*40
1501912879.04,63562,22.88,74434.3,14.55,-10.31,-10.63,0,*4B
1501912880.26,63563,22.88,74432.3,14.55,-9.93,-10.31,0,*7D
1501912881.46,63564,22.88,74434.8,14.57,-9.75,-10.05,0,*77
1501912882.68,63565,22.88,74442.8,14.59,-9.67,-9.89,0,*47
1501912883.91,63566,22.88,74440.0,14.59,-10.09,-10.27,0,*48
1501912885.13,63567,22.88,74438.5,14.59,-9.79,-9.97,0,*45
1501912886.36,63568,22.88,74444.8,14.61,-10.15,-10.41,0,*40
1501912887.56,63569,22.88,74446.3,14.61,-9.89,-10.15,0,*7D
1501912888.82,63570,22.88,74446.3,14.63,-10.75,-11.15,0,*4D
1501912890.07,63571,22.88,74450.8,14.63,-11.45,-11.85,0,*47
1501912891.33,63572,22.88,74438.0,14.63,-11.41,-11.73,0,*49
1501912892.56,63573,22.88,74444.0,14.61,-12.93,-13.29,0,*4B
1501912893.76,63574,22.88,74438.8,14.57,-10.89,-11.15,0,*4D
1501912895.02,63575,22.88,74442.5,14.59,-10.63,-10.97,0,*4D
1501912896.25,63576,22.88,74448.8,14.61,-11.23,-11.51,0,*4B
1501912897.5,63577,22.88,74450.8,14.61,-10.67,-10.97,0,*40
1501912898.73,63578,22.88,74448.8,14.61,-10.71,-11.19,0,*4F
1501912899.93,63579,22.88,74446.3,14.61,-10.27,-10.49,0,*49
1501912901.16,63580,22.88,74448.3,14.63,-9.93,-10.19,0,*7F
1501912902.43,63581,22.88,74444.0,14.63,-9.37,-9.49,0,*4D
1501912903.67,63582,22.88,74446.8,14.63,-9.11,-9.23,0,*46
1501912904.89,63583,22.88,74450.8,14.65,-8.81,-8.97,0,*47
1501912906.11,63584,22.88,74450.5,14.69,-9.27,-9.57,0,*4C
1501912907.34,63585,22.88,74448.8,14.71,-10.15,-10.53,0,*41
1501912908.62,63586,22.88,74450.8,14.71,-10.71,-11.07,0,*40
1501912909.86,63587,22.88,74450.0,14.71,-9.57,-9.75,0,*41
1501912911.08,63588,22.88,74448.3,14.75,-9.93,-10.23,0,*79
1501912912.33,63589,22.88,74444.3,14.75,-11.01,-11.37,0,*4E
1501912913.58,63590,22.88,74444.8,14.75,-12.25,-12.57,0,*46
1501912914.87,63591,22.88,74448.0,14.71,-11.93,-12.35,0,*49
1501912916.12,63592,22.88,74446.8,14.69,-12.21,-12.53,0,*49
1501912917.35,63593,22.88,74446.5,14.69,-12.07,-12.47,0,*49
1501912918.63,63594,22.88,74452.5,14.67,-12.35,-12.71,0,*44
1501912919.91,63595,22.88,74446.8,14.67,-11.97,-12.35,0,*4E
1501912921.14,63596,22.88,74446.5,14.65,-11.23,-11.55,0,*45
1501912922.34,63597,22.88,74446.5,14.65,-10.31,-10.53,0,*41
1501912923.53,63598,22.88,74450.8,14.65,-10.53,-10.85,0,*41
1501912924.73,63599,22.88,74452.8,14.65,-9.71,-9.93,0,*47
1501912925.95,63600,22.88,74454.5,14.67,-9.71,-9.93,0,*46
1501912927.17,63601,22.88,74452.8,14.67,-8.93,-9.19,0,*48
1501912928.44,63602,22.88,74456.5,14.71,-9.41,-9.57,0,*48
1501912929.66,63603,22.88,74462.5,14.77,-9.45,-9.67,0,*48
1501912930.86,63604,22.88,74462.0,14.77,-9.67,-10.01,0,*77
1501912932.05,63605,22.88,74458.5,14.77,-9.19,-9.31,0,*44
1501912933.3,63606,22.88,74456.0,14.79,-8.93,-9.15,0,*4C
1501912934.49,63607,22.88,74458.5,14.81,-8.67,-8.89,0,*45
1501912935.71,63608,22.88,74456.8,14.85,-9.23,-9.49,0,*42
1501912936.98,63609,22.88,74452.8,14.83,-9.11,-9.15,0,*4D
1501912938.2,63610,22.88,74458.0,14.85,-9.23,-9.41,0,*43
1501912939.42,63611,22.88,74456.0,14.87,-8.71,-8.97,0,*4C
1501912940.63,63612,22.88,74464.3,14.89,-9.75,-10.01,0,*72
1501912941.85,63613,22.88,74466.3,14.89,-9.41,-9.75,0,*4F
1501912943.07,63614,22.88,74466.5,14.91,-9.01,-9.23,0,*46
1501912944.29,63615,22.88,74462.0,14.91,-9.93,-10.23,0,*74
1501912945.5,63616,22.88,74468.0,14.93,-10.05,-10.35,0,*45
1501912946.71,63617,22.88,74464.3,14.93,-10.19,-10.49,0,*42
1501912947.93,63618,22.88,74468.8,14.91,-9.93,-10.27,0,*7D
1501912949.14,63619,22.88,74468.5,14.93,-9.71,-10.09,0,*7E
1501912950.35,63620,22.88,74468.0,14.93,-10.19,-10.53,0,*4D
1501912951.55,63621,22.88,74468.0,14.93,-10.27,-10.53,0,*41
1501912952.75,63622,22.88,74466.3,14.93,-9.97,-10.27,0,*72
1501912953.99,63623,22.88,74470.8,14.95,-9.79,-10.15,0,*74
1501912955.22,63624,22.88,74474.8,14.99,-9.57,-9.89,0,*4E
1501912956.47,63625,22.88,74476.5,14.95,-9.23,-9.49,0,*4C
1501912957.69,63626,22.88,74472.0,14.99,-9.71,-9.97,0,*47
1501912958.94,63627,22.88,74458.0,14.99,-10.09,-10.41,0,*42
1501912960.18,63628,22.88,74452.5,14.99,-9.83,-10.09,0,*7B
1501912961.4,63629,22.88,74452.5,15.03,-9.67,-9.97,0,*4D
1501912962.6,63630,22.88,74456.5,15.01,-9.05,-9.27,0,*48
1501912963.88,63631,22.88,74466.5,15.03,-9.11,-9.41,0,*4E
1501912965.15,63632,22.88,74466.5,15.03,-10.63,-10.93,0,*47
1501912966.39,63633,22.88,74470.8,15.03,-9.83,-9.93,0,*48
1501912967.61,63634,22.88,74460.5,15.03,-9.93,-10.05,0,*79
1501912968.86,63635,22.88,74458.3,15.07,-9.19,-9.49,0,*4E
1501912970.08,63636,22.88,74456.8,15.07,-9.75,-10.09,0,*7B
1501912971.31,63637,22.88,74464.8,15.05,-10.49,-10.79,0,*48
1501912972.57,63638,22.88,74466.8,15.07,-10.93,-11.29,0,*46
1501912973.77,63639,22.88,74466.8,15.05,-10.09,-10.27,0,*49
1501912974.98,63640,22.88,74470.0,15.05,-9.79,-10.19,0,*75
1501912976.21,63641,22.88,74466.8,15.07,-10.23,-10.49,0,*44
1501912977.46,63642,22.88,74462.5,15.07,-9.23,-9.53,0,*4C
1501912978.68,63643,22.88,74464.5,15.07,-9.05,-9.27,0,*4A
1501912979.89,63644,22.88,74470.0,15.09,-8.81,-8.93,0,*40
1501912981.1,63645,22.88,74468.8,15.11,-8.59,-8.75,0,*45
1501912982.28,63646,22.88,74472.5,15.13,-8.33,-8.59,0,*46
1501912983.52,63647,22.88,74468.8,15.15,-8.11,-8.33,0,*4D
1501912984.74,63648,22.88,74470.5,15.17,-8.21,-8.45,0,*42
1501912985.96,63649,22.88,74472.0,15.21,-8.17,-8.41,0,*47
1501912987.16,63650,22.88,74470.0,15.23,-8.85,-9.05,0,*47
1501912988.41,63651,22.88,74472.8,15.25,-8.89,-9.15,0,*4D
1501912989.62,63652,22.88,74470.0,15.25,-8.33,-8.63,0,*4F
1501912990.86,63653,22.88,74472.8,15.25,-8.51,-8.71,0,*49
1501912992.11,63654,22.88,74472.3,15.25,-8.11,-8.45,0,*4D
1501912993.34,63655,22.88,74474.5,15.29,-8.03,-8.41,0,*47
1501912994.56,63656,22.88,74478.3,15.31,-8.71,-9.15,0,*48
1501912995.76,63657,22.88,74478.0,15.31,-8.89,-9.27,0,*4F
1501912997.01,63658,22.88,74474.3,15.33,-9.05,-9.41,0,*47
1501912998.25,63659,22.88,74472.0,15.33,-9.45,-9.75,0,*45
1501912999.48,63660,22.88,74468.8,15.33,-9.57,-10.09,0,*7F
1501913000.71,63661,22.88,74472.3,15.33,-10.53,-10.93,0,*41
1501913001.94,63662,22.88,74458.5,15.33,-10.27,-10.57,0,*49
1501913003.22,63663,22.88,74460.3,15.33,-12.07,-12.53,0,*4E
1501913004.47,63664,22.88,74466.8,15.31,-11.67,-11.93,0,*41
1501913005.68,63665,22.88,74462.0,15.31,-10.23,-10.57,0,*48
1501913006.87,63666,22.88,74456.3,15.31,-9.67,-9.89,0,*48
1501913008.08,63667,22.88,74458.0,15.33,-8.75,-9.05,0,*4D
1501913009.31,63668,22.88,74460.8,15.33,-9.01,-9.27,0,*40
1501913010.54,63669,22.88,74464.3,15.33,-9.31,-9.57,0,*45
1501913011.76,63670,22.88,74462.5,15.33,-9.71,-9.97,0,*45
1501913013.02,63671,22.88,74460.3,15.35,-9.15,-9.53,0,*48
1501913014.29,63672,22.88,74460.0,15.37,-9.11,-9.41,0,*4E
1501913015.56,63673,22.88,74460.0,15.37,-9.49,-9.83,0,*4C
1501913016.78,63674,22.88,74466.8,15.37,-9.71,-10.05,0,*76
1501913017.99,63675,22.88,74468.5,15.37,-9.67,-9.97,0,*43
1501913019.26,63676,22.88,74468.0,15.37,-9.49,-9.83,0,*49
1501913020.45,63677,22.88,74468.8,15.39,-10.49,-10.89,0,*4C
1501913021.68,63678,22.88,74456.0,15.39,-11.01,-11.37,0,*4A
1501913022.93,63679,22.88,74444.5,15.37,-12.03,-12.35,0,*45
1501913024.16,63680,22.88,74430.0,15.35,-13.29,-13.73,0,*4B
1501913025.39,63681,22.88,74414.5,15.31,-13.87,-14.37,0,*4D
1501913026.64,63682,22.88,74434.5,15.29,-12.65,-13.11,0,*49
1501913027.89,63683,22.88,74422.3,15.25,-12.89,-13.29,0,*4D
1501913029.17,63684,22.88,74430.5,15.25,-11.77,-12.15,0,*46
1501913030.42,63685,22.88,74438.0,15.23,-11.37,-11.77,0,*42
1501913031.67,63686,22.88,74436.3,15.23,-11.81,-12.07,0,*48
1501913032.93,63687,22.88,74444.0,15.23,-11.51,-11.89,0,*41
1501913034.19,63688,22.88,74440.0,15.17,-12.29,-12.61,0,*40
1501913035.44,63689,22.88,74442.0,15.17,-11.89,-12.25,0,*48
1501913036.67,63690,22.88,74432.3,15.17,-10.89,-11.15,0,*41
1501913037.93,63691,22.88,74444.8,15.17,-11.45,-11.85,0,*48
1501913039.19,63692,22.88,74434.0,15.17,-12.89,-13.37,0,*43
1501913040.39,63693,22.88,74436.5,15.13,-15.29,-15.75,0,*4B
1501913041.61,63694,22.88,74444.3,15.09,-15.11,-15.57,0,*4C
1501913042.82,63695,22.88,74436.3,15.05,-15.07,-15.53,0,*42
1501913044.09,63696,22.88,74440.3,15.03,-14.79,-15.49,0,*44
1501913045.37,63697,22.88,74436.3,14.95,-15.39,-15.85,0,*4E
1501913046.63,63698,22.88,74444.8,14.91,-15.29,-15.89,0,*48
1501913047.88,63699,22.88,74434.8,14.89,-14.75,-15.21,0,*4A
1501913049.11,63700,22.88,74444.8,14.87,-12.97,-13.43,0,*4D
1501913050.34,63701,22.88,74442.8,14.85,-12.03,-12.35,0,*43
1501913051.59,63702,22.88,74448.0,14.85,-11.37,-11.77,0,*41
1501913052.87,63703,22.88,74444.3,14.87,-11.29,-11.73,0,*49
1501913054.12,63704,22.88,74450.8,14.87,-12.71,-13.15,0,*42
1501913055.38,63705,22.88,74448.3,14.85,-11.73,-12.11,0,*45
1501913056.6,63706,22.88,74450.0,14.85,-12.43,-12.75,0,*44
1501913057.89,63707,22.88,74448.0,14.83,-11.33,-11.63,0,*43
1501913059.12,63708,22.88,74450.0,14.85,-11.23,-11.63,0,*4B
1501913060.37,63709,22.88,74446.8,14.85,-11.51,-11.89,0,*4B
1501913061.6,63710,22.88,74450.0,14.85,-12.57,-12.97,0,*4A
1501913062.85,63711,22.88,74446.3,14.85,-11.85,-12.11,0,*49
1501913064.09,63712,22.88,74452.8,14.85,-11.85,-12.21,0,*49
1501913065.31,63713,22.88,74454.8,14.85,-10.79,-11.15,0,*4E
1501913066.52,63714,22.88,74450.0,14.85,-10.19,-10.35,0,*4C
1501913067.73,63715,22.88,74454.0,14.89,-10.31,-10.53,0,*4B
1501913068.96,63716,22.88,74452.3,14.87,-10.57,-10.89,0,*41
1501913070.22,63717,22.88,74454.0,14.89,-10.41,-11.07,0,*4E
1501913071.46,63718,22.88,74456.8,14.89,-10.97,-11.29,0,*46
1501913072.66,63719,22.88,74460.8,14.93,-9.93,-10.19,0,*72
1501913073.9,63720,22.88,74452.5,14.91,-9.83,-10.23,0,*72
1501913075.16,63721,22.88,74462.5,14.93,-10.41,-10.75,0,*44
1501913076.37,63722,22.88,74466.3,14.93,-10.19,-10.49,0,*45
1501913077.63,63723,22.88,74458.5,14.95,-11.41,-11.73,0,*46
1501913078.9,63724,22.88,74454.8,14.95,-11.45,-11.93,0,*4B
1501913080.18,63725,22.88,74458.3,14.95,-11.33,-11.55,0,*41
1501913081.44,63726,22.88,74464.8,14.95,-10.45,-10.63,0,*46
1501913082.68,63727,22.88,74456.3,14.95,-10.19,-10.49,0,*46
1501913083.9,63728,22.88,74458.5,14.99,-10.53,-10.89,0,*47
1501913085.16,63729,22.88,74456.3,14.99,-11.89,-12.21,0,*40
1501913086.41,63730,22.88,74458.3,14.95,-12.43,-12.79,0,*4C
1501913087.7,63731,22.88,74464.3,14.99,-11.55,-11.89,0,*49
1501913088.97,63732,22.88,74448.0,14.95,-11.81,-12.15,0,*49
1501913090.26,63733,22.88,74446.3,14.95,-11.29,-11.59,0,*41
1501913091.48,63734,22.88,74450.8,14.93,-11.11,-11.51,0,*43
1501913092.71,63735,22.88,74454.0,14.93,-10.53,-10.75,0,*42
1501913093.94,63736,22.88,74452.5,14.95,-9.93,-10.15,0,*75
1501913095.2,63737,22.88,74460.0,14.95,-10.63,-10.89,0,*46
1501913096.45,63738,22.88,74458.8,14.99,-10.53,-10.79,0,*49
1501913097.74,63739,22.88,74448.0,14.95,-10.71,-11.07,0,*4C
1501913098.97,63740,22.88,74456.3,14.99,-10.31,-10.57,0,*4E
1501913100.22,63741,22.88,74458.0,14.99,-10.79,-11.01,0,*41
1501913101.44,63742,22.88,74462.0,14.99,-9.89,-10.19,0,*7D
1501913102.7,63743,22.88,74466.3,15.03,-9.97,-10.41,0,*7C
1501913103.93,63744,22.88,74470.0,15.03,-10.49,-10.89,0,*44
1501913105.19,63745,22.88,74460.8,15.03,-12.29,-12.61,0,*45
1501913106.42,63746,22.88,74462.3,15.01,-12.83,-13.23,0,*43
1501913107.68,63747,22.88,74462.8,15.01,-13.61,-13.97,0,*40
1501913108.93,63748,22.88,74464.0,14.99,-12.39,-12.79,0,*42
1501913110.19,63749,22.88,74466.0,14.95,-12.25,-12.65,0,*4F
1501913111.44,63750,22.88,74462.5,14.93,-12.35,-12.57,0,*41
1501913112.7,63751,22.88,74462.0,14.91,-12.21,-12.57,0,*47
1501913113.96,63752,22.88,74456.3,14.91,-11.85,-12.21,0,*48
1501913115.19,63753,22.88,74460.5,14.91,-13.07,-13.55,0,*43
1501913116.45,63754,22.88,74462.5,14.87,-11.45,-11.81,0,*4C
1501913117.68,63755,22.88,74456.5,14.89,-11.41,-11.67,0,*4F
1501913118.94,63756,22.88,74446.0,14.89,-11.07,-11.93,0,*45
1501913120.17,63757,22.88,74460.8,14.89,-12.61,-12.97,0,*40
1501913121.45,63758,22.88,74452.3,14.87,-11.73,-11.97,0,*42
1501913122.69,63759,22.88,74446.5,14.89,-11.51,-11.81,0,*4A
1501913123.93,63760,22.88,74454.5,14.87,-11.11,-11.41,0,*46
1501913125.18,63761,22.88,74456.5,14.87,-11.01,-11.33,0,*43
1501913126.47,63762,22.88,74462.5,14.87,-11.55,-11.85,0,*4C
1501913127.7,63763,22.88,74456.0,14.89,-10.41,-10.57,0,*49
1501913128.93,63764,22.88,74462.3,14.87,-11.01,-11.19,0,*4E
1501913130.16,63765,22.88,74464.3,14.91,-9.79,-10.23,0,*76
1501913131.38,63766,22.88,74456.8,14.93,-9.83,-10.23,0,*72
1501913132.64,63767,22.88,74456.5,14.91,-11.45,-12.07,0,*46
1501913133.89,63768,22.88,74458.3,14.91,-12.61,-13.07,0,*4D
1501913135.17,63769,22.88,74460.0,14.91,-11.07,-11.51,0,*4E
1501913136.42,63770,22.88,74456.0,14.89,-11.67,-12.11,0,*4E
1501913137.68,63771,22.88,74458.5,14.89,-11.51,-11.89,0,*48
1501913138.94,63772,22.88,74452.8,14.89,-11.29,-11.63,0,*40
1501913140.17,63773,22.88,74458.3,14.89,-11.15,-11.55,0,*4B
1501913141.37,63774,22.88,74460.3,14.89,-10.53,-10.85,0,*43
1501913142.62,63775,22.88,74458.5,14.91,-11.11,-11.59,0,*4C
1501913143.85,63776,22.88,74460.3,14.89,-10.45,-10.79,0,*45
1501913145.07,63777,22.88,74462.8,14.89,-9.83,-10.15,0,*7C
1501913146.27,63778,22.88,74460.0,14.93,-9.67,-10.05,0,*73
1501913147.47,63779,22.88,74464.0,14.93,-9.93,-10.35,0,*7A
1501913148.7,63780,22.88,74460.8,14.93,-9.83,-10.19,0,*73
1501913149.92,63781,22.88,74462.5,14.95,-9.93,-10.23,0,*7C
1501913151.18,63782,22.88,74464.3,14.99,-10.31,-10.67,0,*43
1501913152.46,63783,22.88,74460.3,14.99,-10.41,-10.71,0,*42
1501913153.68,63784,22.88,74466.0,14.99,-9.97,-10.19,0,*78
1501913154.95,63785,22.88,74468.3,14.99,-10.15,-10.41,0,*46
1501913156.18,63786,22.88,74464.5,15.03,-10.89,-11.19,0,*4E
1501913157.41,63787,22.88,74468.8,15.03,-10.09,-10.35,0,*48
1501913158.66,63788,22.88,74472.3,15.03,-9.53,-9.79,0,*40
1501913159.91,63789,22.88,74476.5,15.03,-9.45,-9.79,0,*46
1501913161.13,63790,22.88,74470.3,15.05,-9.23,-9.57,0,*44
1501913162.4,63791,22.88,74470.5,15.07,-9.11,-9.41,0,*41
1501913163.62,63792,22.88,74470.3,15.07,-8.93,-9.19,0,*44
1501913164.87,63793,22.88,74472.0,15.11,-9.41,-9.67,0,*45
1501913166.1,63794,22.88,74470.0,15.11,-10.15,-10.49,0,*4F
1501913167.33,63795,22.88,74464.3,15.11,-10.23,-10.53,0,*40
1501913168.55,63796,22.88,74460.8,15.11,-9.31,-9.67,0,*47
1501913169.75,63797,22.88,74458.5,15.13,-10.23,-10.53,0,*40
1501913170.98,63798,22.88,74464.3,15.13,-10.67,-11.23,0,*49
1501913172.21,63799,22.88,74466.8,15.13,-11.81,-12.29,0,*48
1501913173.44,63800,22.88,74462.0,15.13,-11.89,-12.21,0,*47
1501913174.69,63801,22.88,74460.0,15.11,-10.97,-11.33,0,*4A
1501913175.94,63802,22.88,74462.5,15.11,-9.93,-10.41,0,*71
1501913177.19,63803,22.88,74462.8,15.11,-9.83,-10.27,0,*71
1501913178.43,63804,22.88,74460.3,15.11,-9.57,-10.01,0,*7B
1501913179.66,63805,22.88,74456.8,15.13,-9.01,-9.45,0,*43
1501913180.88,63806,22.88,74448.3,15.15,-9.27,-9.75,0,*41
1501913182.1,63807,22.88,74436.3,15.15,-9.67,-10.09,0,*77
1501913183.35,63808,22.88,74444.8,15.17,-9.23,-9.53,0,*4D
1501913184.58,63809,22.88,74456.0,15.17,-9.61,-9.89,0,*4D
1501913185.83,63810,22.88,74454.8,15.21,-9.23,-9.57,0,*45
1501913187.1,63811,22.88,74454.8,15.21,-10.67,-10.97,0,*48
1501913188.38,63812,22.88,74450.5,15.21,-10.41,-10.71,0,*47
1501913189.61,63813,22.88,74450.0,15.21,-9.89,-10.19,0,*74
1501913190.85,63814,22.88,74458.0,15.21,-9.61,-9.93,0,*4F
1501913192.05,63815,22.88,74464.5,15.23,-8.97,-9.27,0,*4B
1501913193.25,63816,22.88,74460.3,15.23,-8.85,-9.19,0,*46
1501913194.48,63817,22.88,74458.8,15.25,-9.71,-10.15,0,*7F
1501913195.71,63818,22.88,74460.0,15.25,-9.71,-10.09,0,*7D
1501913196.96,63819,22.88,74466.3,15.27,-9.11,-9.41,0,*4C
1501913198.15,63820,22.88,74464.0,15.27,-8.45,-8.67,0,*43
1501913199.35,63821,22.88,74460.0,15.29,-8.29,-8.67,0,*46
1501913200.57,63822,22.88,74462.0,15.33,-8.59,-8.85,0,*45
1501913201.76,63823,22.88,74460.3,15.35,-8.29,-8.55,0,*48
1501913202.94,63824,22.88,74458.8,15.35,-8.45,-8.67,0,*44
1501913204.13,63825,22.88,74460.0,15.39,-8.67,-8.97,0,*46
1501913205.35,63826,22.88,74464.5,15.39,-9.37,-9.67,0,*4F
1501913206.57,63827,22.88,74464.8,15.39,-9.61,-10.05,0,*71
1501913207.76,63828,22.88,74468.5,15.39,-9.89,-10.31,0,*7F
1501913208.98,63829,22.88,74466.8,15.43,-10.71,-11.11,0,*4F
1501913210.21,63830,22.88,74464.5,15.39,-10.01,-10.41,0,*49
1501913211.4,63831,22.88,74460.8,15.39,-9.31,-9.67,0,*4F
1501913212.62,63832,22.88,74458.0,15.43,-7.95,-8.21,0,*42
1501913213.83,63833,22.88,74458.3,15.43,-7.95,-8.25,0,*47
1501913215.05,63834,22.88,74452.8,15.47,-7.95,-8.21,0,*40
1501913216.24,63835,22.88,74454.0,15.47,-8.45,-8.85,0,*4D
1501913217.43,63836,22.88,74460.3,15.49,-8.25,-8.55,0,*4B
1501913218.68,63837,22.88,74448.8,15.51,-9.49,-10.01,0,*70
1501913219.91,63838,22.88,74446.0,15.51,-8.71,-9.19,0,*44
1501913221.12,63839,22.88,74444.3,15.49,-9.19,-9.61,0,*4C
1501913222.36,63840,22.88,74446.3,15.51,-9.75,-10.19,0,*76
1501913223.58,63841,22.88,74458.0,15.49,-9.45,-9.79,0,*43
1501913224.79,63842,22.88,74458.3,15.51,-8.67,-9.05,0,*43
1501913226.02,63843,22.88,74456.5,15.49,-8.71,-9.11,0,*49
1501913227.21,63844,22.88,74454.0,15.53,-8.89,-9.31,0,*40
1501913228.44,63845,22.88,74450.5,15.53,-10.71,-11.19,0,*4C
1501913229.66,63846,22.88,74458.0,15.53,-9.83,-10.45,0,*72
1501913230.85,63847,22.88,74462.3,15.53,-8.75,-9.19,0,*4A
1501913232.04,63848,22.88,74460.0,15.53,-8.33,-8.89,0,*4F
1501913233.25,63849,22.88,74466.8,15.53,-8.11,-8.59,0,*43
1501913234.49,63850,22.88,74464.3,15.55,-7.69,-8.21,0,*42
1501913235.74,63851,22.88,74468.8,15.59,-8.51,-8.97,0,*46
1501913236.93,63852,22.88,74468.5,15.57,-8.21,-8.75,0,*40
1501913238.14,63853,22.88,74462.0,15.59,-8.29,-8.93,0,*4F
1501913239.39,63854,22.88,74470.8,15.59,-7.91,-8.37,0,*4A
1501913240.6,63855,22.88,74468.0,15.61,-7.61,-8.21,0,*48
1501913241.84,63856,22.88,74464.3,15.63,-8.11,-8.75,0,*40
1501913243.11,63857,22.88,74470.5,15.63,-7.43,-7.99,0,*44
1501913244.35,63858,22.88,74470.8,15.63,-7.39,-7.87,0,*49
1501913245.57,63859,22.88,74474.3,15.69,-7.19,-7.65,0,*4C
1501913246.76,63860,22.88,74474.8,15.69,-8.71,-9.23,0,*4B
1501913248.0,63861,22.88,74464.8,15.71,-8.97,-9.53,0,*4C
1501913249.22,63862,22.88,74460.3,15.71,-8.29,-8.85,0,*40
1501913250.41,63863,22.88,74460.3,15.73,-8.55,-9.23,0,*45
1501913251.6,63864,22.88,74466.3,15.73,-9.05,-9.71,0,*41
1501913252.84,63865,22.88,74456.5,15.71,-9.61,-10.23,0,*7F
1501913254.06,63866,22.88,74460.8,15.71,-8.59,-9.27,0,*4A
1501913255.28,63867,22.88,74462.0,15.73,-9.49,-10.15,0,*70
1501913256.54,63868,22.88,74470.0,15.71,-11.01,-11.85,0,*40
1501913257.79,63869,22.88,74454.3,15.71,-10.85,-11.55,0,*41
1501913259.01,63870,22.88,74454.5,15.69,-10.89,-11.59,0,*40
1501913260.28,63871,22.88,74462.0,15.67,-12.83,-13.79,0,*47
1501913261.5,63872,22.88,74458.8,15.61,-10.85,-11.51,0,*4E
1501913262.72,63873,22.88,74460.3,15.61,-11.23,-11.93,0,*4C
1501913263.96,63874,22.88,74464.5,15.57,-11.33,-12.29,0,*4D
1501913265.22,63875,22.88,74458.0,15.57,-11.07,-11.85,0,*4E
1501913266.47,63876,22.88,74462.0,15.53,-10.79,-11.63,0,*49
1501913267.7,63877,22.88,74462.0,15.53,-11.51,-12.25,0,*42
1501913268.93,63878,22.88,74468.0,15.53,-9.41,-10.23,0,*71
1501913270.17,63879,22.88,74460.8,15.55,-8.71,-9.57,0,*4F
1501913271.39,63880,22.88,74460.0,15.55,-8.21,-9.01,0,*4F
1501913272.62,63881,22.88,74464.3,15.57,-8.55,-9.37,0,*4A
1501913273.84,63882,22.88,74470.3,15.59,-8.25,-9.05,0,*41
1501913275.08,63883,22.88,74464.0,15.59,-8.59,-9.49,0,*43
1501913276.33,63884,22.88,74470.3,15.63,-8.89,-9.61,0,*4A
1501913277.52,63885,22.88,74462.0,15.61,-9.05,-9.97,0,*45
1501913278.79,63886,22.88,74460.8,15.63,-8.81,-9.61,0,*40
1501913280.03,63887,22.88,74460.3,15.63,-8.75,-9.61,0,*4A
1501913281.23,63888,22.88,74460.3,15.61,-10.57,-11.41,0,*45
1501913282.46,63889,22.88,74468.5,15.61,-10.85,-11.89,0,*4F
1501913283.72,63890,22.88,74458.5,15.59,-11.93,-12.97,0,*46
1501913284.95,63891,22.88,74454.0,15.57,-10.93,-11.77,0,*45
1501913286.15,63892,22.88,74462.0,15.57,-10.05,-10.93,0,*42
1501913287.4,63893,22.88,74448.3,15.59,-11.33,-12.47,0,*42
1501913288.64,63894,22.88,74454.3,15.53,-12.25,-13.33,0,*49
1501913289.87,63895,22.88,74456.5,15.53,-11.93,-13.07,0,*41
1501913291.12,63896,22.88,74444.8,15.49,-11.73,-12.79,0,*4F
1501913292.32,63897,22.88,74456.5,15.49,-12.25,-13.43,0,*46
1501913293.55,63898,22.88,74452.3,15.47,-11.07,-12.03,0,*41
1501913294.81,63899,22.88,74458.8,15.45,-10.19,-11.07,0,*4B
1501913296.04,63900,22.88,74466.5,15.45,-9.27,-10.19,0,*71
1501913297.23,63901,22.88,74460.0,15.47,-10.05,-11.15,0,*47
1501913298.46,63902,22.88,74452.5,15.47,-9.67,-10.63,0,*78
1501913299.68,63903,22.88,74458.5,15.47,-10.23,-11.29,0,*4E